This demonstration page uses our WeatherBlox Daily Observations layout. Learn more.

Left ArrowRight Arrow

39.08367, -84.50855

Hourly Observations for November 13, 2015

Temp ( °F °C ) Dew Point ( °F °C ) Humidity (%) Winds ( mph kmh ) Pressure ( in mb ) Visibility ( mi km ) Precip ( " mm )
12:53 am 00:53 Clear with Light Rain 48 8.9 33 0.6 56 56 W 18 30 29.99 1016 10 16 0.00 0.03
1:53 am 01:53 Clear with Light Rain 47 8.3 32 0 56 56 W 20 31 30.01 1016 10 16 0.00 0.03
2:53 am 02:53 Clear with Light Rain 45 7.2 32 0 61 61 W 16 26 30.02 1017 10 16 0.00 0.03
3:53 am 03:53 Clear with Light Rain 46 7.8 31 -0.6 56 56 W 17 28 30.02 1017 10 16 0.00 0.03
4:53 am 04:53 Clear with Light Rain 45 7.2 30 -1.1 56 56 W 17 28 30.04 1017 10 16 0.00 0.03
5:53 am 05:53 Clear with Light Rain 44 6.7 30 -1.1 58 58 W 14 22 30.06 1018 10 16 0.00 0.03
6:53 am 06:53 Clear 43 6.1 30 -1.1 60 60 W 13 20 30.08 1019 10 16 0.00 0.03
7:53 am 07:53 Sunny 42 5.6 30 -1.1 62 62 W 10 17 30.10 1019 10 16 0.00 0.00
8:53 am 08:53 Sunny 45 7.2 31 -0.6 58 58 WSW 14 22 30.12 1020 10 16 0.00 0.00
9:53 am 09:53 Sunny 46 7.8 30 -1.1 54 54 W 15 24 30.12 1020 10 16 0.00 0.00
10:53 am 10:53 Sunny 49 9.4 30 -1.1 48 48 W 16 26 30.13 1020 10 16 0.00 0.00
11:53 am 11:53 Sunny 50 10 26 -3.3 39 39 W 16 26 30.12 1020 10 16 0.00 0.00
12:53 pm 12:53 Sunny 52 11.1 23 -5 32 32 W 20 31 30.10 1019 10 16 0.00 0.00
1:53 pm 13:53 Sunny 52 11.1 20 -6.7 28 28 WNW 21 33 30.10 1019 10 16 0.00 0.00
2:53 pm 14:53 Sunny 52 11.1 21 -6.1 30 30 W 22 35 30.11 1020 10 16 0.00 0.00
3:53 pm 15:53 Sunny 51 10.6 16 -8.9 25 25 WNW 13 20 30.13 1020 10 16 0.00 0.00
6:53 pm 18:53 Clear 46 7.8 17 -8.3 31 31 W 16 26 30.19 1022 10 16 0.00 0.00
7:53 pm 19:53 Clear 45 7.2 19 -7.2 35 35 W 8 13 30.22 1023 10 16 0.00 0.00
8:53 pm 20:53 Clear 43 6.1 21 -6.1 42 42 W 8 13 30.22 1024 10 16 0.00 0.00
9:53 pm 21:53 Clear 42 5.6 21 -6.1 43 43 W 7 11 30.24 1024 10 16 0.00 0.00
10:53 pm 22:53 Clear 41 5 21 -6.1 45 45 Calm 30.25 1024 10 16 0.00 0.00
11:53 pm 23:53 Clear 41 5 21 -6.1 45 45 WSW 6 9 30.26 1025 10 16 0.00 0.00

Powered by AerisWeather